Location: Newark
(60.6561°N, 46.5772°E)
Time: 22:27:46
(UTC+00:00)

A-11 Canister half - Visible Passes

Search period start: 21 October 2019 00:00
Search period end: 31 October 2019 00:00
Orbit: 1527 x 1682 km, 47.3° (Epoch: 20 October)

Date Brightness Start Highest point End Pass type
(mag) Time Alt. Az. Time Alt. Az. Time Alt. Az.
21 Oct 10.4 15:05:10 10° SSE 15:08:18 12° SE 15:10:04 11° ESE visible
21 Oct 10.0 17:03:09 10° SSW 17:08:23 25° S 17:08:23 25° S visible
21 Oct 10.7 19:05:25 10° WSW 19:06:42 14° SW 19:06:42 14° SW visible
22 Oct 10.5 14:44:12 10° SE 14:46:49 11° SE 14:49:26 10° ESE visible
22 Oct 9.9 16:41:41 10° SSW 16:48:08 26° SSE 16:48:08 26° SSE visible
22 Oct 10.4 18:43:52 10° WSW 18:46:27 19° SW 18:46:27 19° SW visible
23 Oct 10.5 14:23:24 10° SE 14:25:20 11° SE 14:27:17 10° ESE visible
23 Oct 9.8 16:20:14 10° SSW 16:27:30 26° SSE 16:27:50 26° SSE visible
23 Oct 10.2 18:22:20 10° WSW 18:26:08 24° SW 18:26:08 24° SW visible
24 Oct 10.6 14:03:06 10° SE 14:03:52 10° SE 14:04:37 10° ESE visible
24 Oct 9.8 15:58:47 10° SSW 16:05:59 26° SSE 16:07:28 24° SE visible
24 Oct 10.0 18:00:47 10° SW 18:05:46 29° SSW 18:05:46 29° SSW visible
25 Oct 9.9 15:37:20 10° SSW 15:44:28 25° SSE 15:47:03 22° SE visible
25 Oct 9.8 17:39:14 10° SW 17:45:22 32° SSW 17:45:22 32° SSW visible
25 Oct 10.8 19:42:44 10° WSW 19:43:39 13° WSW 19:43:39 13° WSW visible
26 Oct 10.0 15:15:54 10° SSW 15:22:57 24° SSE 15:26:36 19° ESE visible
26 Oct 9.6 17:17:42 10° SW 17:24:54 35° S 17:24:54 35° S visible
26 Oct 10.6 19:21:09 10° WSW 19:23:12 17° WSW 19:23:12 17° WSW visible
27 Oct 10.1 14:54:28 10° SSW 15:01:25 24° SSE 15:06:08 16° ESE visible
27 Oct 9.6 16:56:09 10° SW 17:04:20 35° S 17:04:25 35° S visible
27 Oct 10.4 18:59:34 10° WSW 19:02:43 21° WSW 19:02:43 21° WSW visible
28 Oct 10.2 14:33:03 10° SSW 14:39:54 23° SSE 14:45:37 13° ESE visible
28 Oct 9.6 16:34:36 10° SW 16:42:47 35° S 16:43:54 34° SSE visible
28 Oct 10.2 18:37:59 10° WSW 18:42:12 25° SW 18:42:12 25° SW visible
29 Oct 10.2 14:11:38 10° SSW 14:18:22 22° SE 14:25:02 10° E visible
29 Oct 9.6 16:13:03 10° SW 16:21:15 35° S 16:23:24 31° SE visible
29 Oct 10.0 18:16:23 10° WSW 18:21:41 29° SW 18:21:41 29° SW visible
30 Oct 10.3 13:50:13 10° S 13:56:52 22° SE 14:03:24 10° E visible
30 Oct 9.7 15:51:31 10° SW 15:59:42 34° SSE 16:02:51 28° SE visible
30 Oct 9.9 17:54:48 10° WSW 18:01:08 32° SSW 18:01:08 32° SSW visible
30 Oct 11.0 19:59:15 10° W 19:59:26 10° W 19:59:26 10° W visible
